Weather reports worldwide

Advertisment
Manschnow, Germany (10396): temperature & dewpoint: 14.01.2021 15:00:00 - 20.01.2021 15:00:00 (CET)Manschnow, Germany (10396): temperature 5cm & temperature -5cm: 14.01.2021 15:00:00 - 20.01.2021 15:00:00 (CET)Manschnow, Germany (10396): temperature -20cm & temperature -100cm: 14.01.2021 15:00:00 - 20.01.2021 15:00:00 (CET)Manschnow, Germany (10396): wind speed & gusts: 14.01.2021 15:00:00 - 20.01.2021 15:00:00 (CET)Manschnow, Germany (10396): wind direction: 14.01.2021 15:00:00 - 20.01.2021 15:00:00 (CET)Manschnow, Germany (10396): reduced air pressure: 14.01.2021 15:00:00 - 20.01.2021 15:00:00 (CET)Manschnow, Germany (10396): visibility: 14.01.2021 15:00:00 - 20.01.2021 15:00:00 (CET)Manschnow, Germany (10396): sunshine duration: 14.01.2021 15:00:00 - 20.01.2021 15:00:00 (CET)Manschnow, Germany (10396): precipitation: 14.01.2021 15:00:00 - 20.01.2021 15:00:00 (CET)
Date & Time tt [°C] td [°C] tt 5cm [°C] tt -5cm [°C] tt -20cm [°C] tt -100cm [°C] ff [km/h] ff [kn] fx [km/h] fx [kn] dd ppp [hPa] vv [km] sd [min] rr [mm]
20.01.2021 15:00:00 8,1 2,7 - - - - 20 11 29 16 SSW 1002,7 75 15 -
20.01.2021 14:00:00 7,7 2,6 7,1 4,2 0,7 4,6 21 12 33 18 SSW 1002,7 73 33 0,0
20.01.2021 13:00:00 6,9 2,5 5,9 2,8 0,4 4,6 22 12 31 17 SSW 1003,2 75 0 0,0
20.01.2021 12:00:00 6,1 2,1 5,1 2,1 0,4 4,6 20 11 27 15 SSW 1003,8 75 0 0,0
20.01.2021 11:00:00 5,4 1,6 4,1 1,6 0,4 4,6 18 10 28 15 SSW 1004,5 75 6 0,0
20.01.2021 10:00:00 3,9 1,2 2,6 0,7 0,4 4,6 12 7 19 11 SSW 1004,5 64 0 0,0
20.01.2021 09:00:00 3,2 1,3 2,0 0,2 0,4 4,7 10 5 16 9 S 1004,4 55 0 0,0
20.01.2021 08:00:00 2,8 1,5 1,3 0,2 0,4 4,7 13 7 19 10 SSW 1004,5 43 0 0,0
20.01.2021 07:00:00 3,3 2,1 1,9 0,2 0,4 4,7 11 6 23 13 SSW 1004,3 32 0 0,0
20.01.2021 06:00:00 4,2 3,0 2,7 0,5 0,4 4,7 17 9 25 14 SSW 1004,7 36 0 0,0
20.01.2021 05:00:00 4,3 3,2 3,1 0,5 0,4 4,7 17 9 24 13 SW 1004,7 27 0 0,0
20.01.2021 04:00:00 4,6 3,3 3,2 0,4 0,4 4,7 15 8 29 15 SW 1005,0 32 0 0,0
20.01.2021 03:00:00 4,9 3,7 3,5 0,4 0,4 4,7 16 9 24 13 SW 1004,8 28 0 0,0
20.01.2021 02:00:00 5,2 4,0 3,9 0,4 0,4 4,7 20 11 32 17 WSW 1004,5 25 0 0,0
20.01.2021 01:00:00 4,5 3,9 3,4 0,2 0,3 4,7 14 8 28 15 SW 1004,3 20 0 0,1
20.01.2021 00:00:00 4,0 3,6 3,0 0,2 0,3 4,7 16 9 27 15 SW 1004,5 7 0 0,2
19.01.2021 23:00:00 3,2 2,8 2,3 0,1 0,3 4,7 15 8 23 12 SW 1004,4 16 0 0,3
19.01.2021 22:00:00 2,6 2,3 1,9 0,1 0,3 4,7 14 7 26 14 SW 1004,3 16 0 0,1
19.01.2021 21:00:00 2,2 1,8 1,6 0,1 0,3 4,7 13 7 20 11 SSW 1004,5 22 0 0,0
19.01.2021 20:00:00 1,9 1,4 1,2 0,0 0,3 4,7 12 7 24 13 SSW 1004,6 36 0 0,0
19.01.2021 19:00:00 1,6 1,1 1,0 0,0 0,3 4,7 14 7 26 14 SSW 1004,8 19 0 0,0
19.01.2021 18:00:00 1,4 0,7 0,7 0,0 0,3 4,7 17 9 26 14 SSW 1004,9 21 0 0,0
19.01.2021 17:00:00 1,4 0,6 0,7 0,0 0,3 4,7 18 10 29 16 S 1005,0 39 0 0,0
19.01.2021 16:00:00 1,1 0,5 0,5 0,0 0,3 4,7 21 11 34 18 S 1005,4 22 0 0,4
19.01.2021 15:00:00 1,2 0,5 0,5 0,0 0,3 4,7 17 9 30 16 S 1005,8 14 0 1,1
19.01.2021 14:00:00 2,6 1,0 1,7 0,0 0,3 4,7 19 10 34 19 S 1006,7 18 0 0,1
19.01.2021 13:00:00 3,2 0,5 2,2 0,0 0,3 4,7 18 10 28 15 S 1007,9 44 0 0,0
19.01.2021 12:00:00 3,1 1,2 2,3 0,0 0,3 4,7 18 10 27 15 S 1009,3 36 0 0,0
19.01.2021 11:00:00 2,8 1,4 2,0 0,0 0,3 4,7 15 8 26 14 SSW 1010,8 31 0 0,0
19.01.2021 10:00:00 2,5 1,3 1,6 0,0 0,3 4,8 18 10 27 15 SW 1011,7 24 0 0,0
19.01.2021 09:00:00 2,1 1,0 1,2 0,0 0,3 4,8 15 8 21 12 SSW 1012,3 22 0 0,0
19.01.2021 08:00:00 2,2 1,1 1,1 0,0 0,3 4,8 12 7 19 10 SSW 1012,9 22 0 0,0
19.01.2021 07:00:00 2,3 1,2 1,3 0,0 0,3 4,8 15 8 24 13 WSW 1013,4 17 0 0,0
19.01.2021 06:00:00 2,3 1,4 1,4 0,0 0,3 4,8 13 7 24 13 SW 1013,8 16 0 0,0
19.01.2021 05:00:00 2,4 1,5 1,5 0,0 0,3 4,8 14 7 24 13 WSW 1014,0 12 0 0,0
19.01.2021 04:00:00 2,4 1,6 1,5 0,0 0,3 4,8 18 10 26 14 WSW 1014,2 9 0 0,1
19.01.2021 03:00:00 2,6 1,7 1,6 0,0 0,3 4,8 17 9 24 13 WSW 1014,3 8 0 0,0
19.01.2021 02:00:00 2,4 1,6 1,4 0,0 0,3 4,8 16 9 27 15 WSW 1014,5 12 0 0,1
19.01.2021 01:00:00 2,1 1,4 1,2 0,0 0,3 4,8 17 9 27 15 WSW 1014,7 9 0 0,6
19.01.2021 00:00:00 1,9 1,1 1,0 -0,1 0,3 4,8 17 9 27 15 WSW 1015,1 12 0 0,0
18.01.2021 23:00:00 1,7 0,9 0,8 -0,2 0,3 4,8 17 9 29 15 WSW 1015,0 15 0 0,2
18.01.2021 22:00:00 1,8 1,0 0,9 -0,2 0,3 4,8 17 9 29 16 SW 1015,4 13 0 0,1
18.01.2021 21:00:00 1,4 0,7 0,6 -0,3 0,3 4,8 16 8 26 14 SW 1015,7 9 0 0,0
18.01.2021 20:00:00 0,9 0,3 0,3 -0,3 0,3 4,8 16 9 23 13 SW 1016,3 8 0 0,2
18.01.2021 19:00:00 -0,7 -1,0 -0,9 -0,4 0,3 4,8 11 6 16 9 S 1016,8 1,1 0 0,9
18.01.2021 18:00:00 -1,7 -2,1 -1,6 -0,5 0,3 4,8 10 5 16 8 SSE 1017,4 2,4 0 0,1
18.01.2021 17:00:00 -2,4 -2,9 -2,3 -0,5 0,3 4,8 8 5 12 7 SE 1018,0 2,7 0 0,0
18.01.2021 16:00:00 -2,6 -3,8 -2,6 -0,4 0,3 4,8 10 5 15 8 S 1018,5 4,1 0 0,0
18.01.2021 15:00:00 -3,0 -3,9 -2,8 -0,3 0,3 4,8 10 5 14 8 S 1019,0 3,8 0 0,0
18.01.2021 14:00:00 -3,2 -4,6 -2,5 -0,4 0,3 4,8 9 5 13 7 S 1019,1 4,0 0 0,0
18.01.2021 13:00:00 -3,1 -5,2 -2,5 -0,4 0,3 4,8 9 5 15 8 SSE 1019,9 10 0 0,0
18.01.2021 12:00:00 -3,6 -5,7 -3,0 -0,7 0,3 4,8 10 5 14 8 SSE 1020,3 12 0 0,0
18.01.2021 11:00:00 -4,4 -6,3 -3,7 -1,1 0,3 4,8 10 5 15 8 SE 1020,8 8 0 0,0
18.01.2021 10:00:00 -5,1 -7,5 -4,4 -1,5 0,3 4,8 10 5 14 8 SE 1021,2 14 0 0,0
18.01.2021 09:00:00 -5,9 -7,9 -5,5 -1,8 0,3 4,8 9 5 16 9 SE 1021,3 12 0 0,0
18.01.2021 08:00:00 -6,2 -8,1 -6,1 -2,0 0,4 4,9 11 6 16 9 SE 1021,3 12 0 0,0
18.01.2021 07:00:00 -7,0 -8,3 -6,7 -2,4 0,4 4,9 6 4 10 5 E 1021,0 8 0 0,0
18.01.2021 06:00:00 -7,2 -8,6 -7,9 -2,3 0,4 4,9 6 3 11 6 ESE 1021,3 8 0 0,0
18.01.2021 05:00:00 -6,4 -7,9 -6,3 -2,1 0,4 4,9 7 4 10 5 ESE 1021,7 9 0 0,0
18.01.2021 04:00:00 -6,9 -8,4 -6,8 -2,5 0,5 4,9 7 4 10 6 E 1021,9 9 0 0,0
18.01.2021 03:00:00 -7,6 -9,1 -8,2 -2,5 0,5 4,9 7 4 9 5 E 1021,8 9 0 0,0
18.01.2021 02:00:00 -7,8 -9,3 -8,2 -2,6 0,5 4,9 6 3 11 6 E 1022,3 10 0 0,0
18.01.2021 01:00:00 -8,0 -9,6 -8,8 -2,5 0,5 4,9 7 4 10 5 E 1022,5 9 0 0,0
18.01.2021 00:00:00 -8,1 -9,9 -9,2 -2,4 0,6 4,9 7 4 10 5 ESE 1022,8 11 0 0,0
17.01.2021 23:00:00 -7,8 -9,7 -9,0 -2,2 0,6 4,9 7 4 10 5 ESE 1022,9 11 0 0,0
17.01.2021 22:00:00 -7,2 -9,5 -8,2 -1,9 0,6 4,9 9 5 12 7 SE 1023,2 13 0 0,0
17.01.2021 21:00:00 -7,4 -9,9 -8,1 -1,7 0,6 4,9 8 5 11 6 SE 1023,2 16 0 0,0
17.01.2021 20:00:00 -6,8 -9,3 -7,8 -1,2 0,7 4,9 9 5 11 6 E 1023,2 14 0 0,0
17.01.2021 19:00:00 -5,4 -8,2 -5,5 -0,7 0,7 4,9 9 5 12 7 SE 1023,1 17 0 0,0
17.01.2021 18:00:00 -4,7 -8,1 -4,7 -0,6 0,7 4,9 6 4 11 6 E 1022,8 19 0 0,0
17.01.2021 17:00:00 -4,4 -7,3 -4,6 -0,5 0,7 4,9 9 5 16 8 E 1022,2 28 0 0,0
17.01.2021 16:00:00 -3,9 -7,2 -4,0 -0,2 0,7 4,9 9 5 14 8 E 1022,0 32 0 0,0
17.01.2021 15:00:00 -3,7 -7,2 -3,2 0,0 0,7 4,9 9 5 16 9 ENE 1021,5 34 0 0,0
17.01.2021 14:00:00 -3,4 -6,6 -2,6 0,0 0,7 4,9 10 6 16 9 E 1021,2 27 0 0,0
17.01.2021 13:00:00 -3,2 -6,6 -2,3 -0,1 0,7 4,9 8 4 14 8 ENE 1021,2 31 0 0,0
17.01.2021 12:00:00 -3,3 -6,0 -2,3 -0,1 0,7 4,9 11 6 21 11 ENE 1020,9 20 0 0,0
17.01.2021 11:00:00 -3,8 -6,3 -3,1 -0,3 0,7 4,9 11 6 23 12 E 1020,7 21 0 0,0
17.01.2021 10:00:00 -3,8 -6,3 -3,4 -0,4 0,7 4,9 13 7 24 13 ENE 1020,0 25 0 0,0
17.01.2021 09:00:00 -2,8 -5,3 -2,6 -0,3 0,7 4,9 11 6 17 9 E 1019,5 28 0 0,0
17.01.2021 08:00:00 -2,0 -3,5 -2,2 -0,3 0,7 4,9 3 2 7 4 NNE 1018,9 33 0 0,0
17.01.2021 07:00:00 -2,1 -3,7 -2,3 -0,3 0,7 4,9 3 1 9 5 NW 1018,6 31 0 0,0
17.01.2021 06:00:00 -2,2 -3,9 -2,4 -0,3 0,7 4,9 5 3 13 7 NW 1018,4 35 0 0,0
17.01.2021 05:00:00 -2,3 -4,3 -2,5 -0,3 0,7 4,9 6 4 13 7 NW 1018,1 21 0 0,0
17.01.2021 04:00:00 -2,2 -4,7 -2,3 -0,3 0,7 4,9 7 4 16 8 WNW 1018,0 60 0 0,0
17.01.2021 03:00:00 -2,2 -4,8 -2,4 -0,3 0,8 4,9 12 6 17 9 W 1018,2 55 0 0,0
17.01.2021 02:00:00 -2,1 -4,9 -2,3 -0,3 0,8 5,0 10 6 22 12 W 1018,4 57 0 0,0
17.01.2021 01:00:00 -1,7 -4,8 -2,0 -0,2 0,8 5,0 12 7 21 11 W 1018,6 52 0 0,0
17.01.2021 00:00:00 -1,6 -4,8 -1,9 -0,2 0,8 5,0 14 8 23 13 W 1018,9 57 0 0,0
16.01.2021 23:00:00 -1,8 -4,6 -2,0 -0,2 0,8 5,0 13 7 20 11 W 1018,8 62 0 0,0
16.01.2021 22:00:00 -2,1 -5,0 -2,4 -0,3 0,8 5,0 16 8 27 15 W 1019,0 58 0 0,0
16.01.2021 21:00:00 -2,2 -4,9 -2,4 -0,2 0,8 5,0 13 7 18 10 W 1019,4 47 0 0,0
16.01.2021 20:00:00 -2,4 -5,2 -2,7 -0,2 0,8 5,0 10 6 19 10 WNW 1019,8 45 0 0,0
16.01.2021 19:00:00 -2,7 -5,6 -3,3 -0,2 0,8 5,0 14 8 26 14 NW 1019,9 52 0 0,0
16.01.2021 18:00:00 -2,3 -5,8 -2,8 -0,1 0,8 5,0 12 7 24 13 NW 1020,1 55 0 0,0
16.01.2021 17:00:00 -1,8 -5,1 -2,4 0,0 0,8 5,0 10 6 22 12 NW 1020,4 64 0 0,0
16.01.2021 16:00:00 -1,0 -4,6 -1,4 0,0 0,8 5,0 11 6 31 17 NW 1020,3 47 0 0,0
16.01.2021 15:00:00 -0,5 -4,3 -0,6 0,0 0,8 5,0 16 9 33 18 WNW 1020,4 42 0 0,0
16.01.2021 14:00:00 -0,5 -4,0 -0,5 0,0 0,8 5,0 21 11 31 17 WNW 1020,8 37 0 0,0
16.01.2021 13:00:00 -0,7 -3,6 -0,5 0,0 0,8 5,0 19 10 29 16 W 1021,1 34 0 0,0
16.01.2021 12:00:00 -0,9 -3,4 -0,6 0,0 0,8 5,0 16 9 26 14 W 1022,0 31 0 0,0
16.01.2021 11:00:00 -1,3 -3,6 -1,1 0,0 0,9 5,0 16 9 23 13 W 1022,9 31 0 0,0
16.01.2021 10:00:00 -1,7 -3,9 -1,8 -0,1 0,9 5,0 16 9 22 12 W 1023,2 36 0 0,0
16.01.2021 09:00:00 -2,2 -4,5 -2,4 -0,1 0,9 5,0 12 7 17 9 W 1023,4 36 0 0,0
16.01.2021 08:00:00 -2,5 -4,9 -2,7 -0,1 0,9 5,0 9 5 14 7 W 1023,7 27 0 0,0
16.01.2021 07:00:00 -2,8 -5,3 -3,0 -0,1 0,9 5,0 9 5 16 8 WNW 1024,1 20 0 0,0
16.01.2021 06:00:00 -2,9 -5,8 -3,1 -0,2 0,9 5,0 13 7 19 11 W 1024,6 19 0 0,0
16.01.2021 05:00:00 -3,4 -6,2 -3,7 -0,2 0,9 5,0 12 7 16 9 W 1024,8 55 0 0,0
16.01.2021 04:00:00 -4,6 -7,1 -6,6 -0,2 1,0 5,0 9 5 22 12 WNW 1025,1 58 0 0,0
16.01.2021 03:00:00 -3,6 -6,8 -4,5 -0,1 1,0 5,0 15 8 24 13 WNW 1025,2 55 0 0,0
16.01.2021 02:00:00 -3,3 -6,7 -3,8 0,0 1,0 5,0 15 8 26 14 WNW 1025,3 56 0 0,0
16.01.2021 01:00:00 -3,1 -6,6 -3,4 0,1 1,0 5,0 16 9 23 12 NW 1025,3 56 0 0,0
16.01.2021 00:00:00 -2,9 -6,6 -3,4 0,1 1,1 5,0 15 8 24 13 NW 1025,3 54 0 0,0
15.01.2021 23:00:00 -2,7 -6,6 -3,1 0,1 1,1 5,0 14 7 25 13 NW 1025,2 59 0 0,0
15.01.2021 22:00:00 -2,6 -6,4 -3,0 0,2 1,1 5,0 16 9 28 15 NW 1025,2 51 0 0,0
15.01.2021 21:00:00 -2,4 -6,7 -2,9 0,3 1,1 5,0 15 8 29 16 NW 1025,1 65 0 0,0
15.01.2021 20:00:00 -2,2 -6,3 -2,4 0,3 1,2 5,0 16 9 29 15 NW 1024,7 73 0 0,0
15.01.2021 19:00:00 -1,7 -5,9 -2,0 0,4 1,2 5,0 13 7 28 15 NW 1024,6 65 0 0,0
15.01.2021 18:00:00 -1,3 -5,5 -1,7 0,4 1,2 5,0 17 9 33 18 NNW 1024,2 62 0 0,0
15.01.2021 17:00:00 -0,2 -2,9 -0,7 0,5 1,3 5,0 10 5 25 14 NNW 1023,5 53 0 0,0
15.01.2021 16:00:00 0,0 -1,5 -0,6 0,6 1,3 5,0 7 4 20 11 NNW 1022,9 19 0 0,1
15.01.2021 15:00:00 0,1 -1,2 -0,1 0,9 1,2 5,0 10 5 18 10 NNW 1022,4 4,3 0 0,0
15.01.2021 14:00:00 0,1 -1,1 0,1 1,1 1,1 5,0 8 5 23 12 NW 1022,2 25 0 0,0
15.01.2021 13:00:00 -0,2 -1,7 -0,1 0,8 1,1 5,0 13 7 23 13 NW 1022,1 26 0 0,0
15.01.2021 12:00:00 -0,2 -2,0 -0,3 0,5 1,1 5,0 13 7 29 16 NW 1022,2 10 0 0,1
15.01.2021 11:00:00 -0,1 -1,7 -0,4 0,4 1,1 5,0 11 6 24 13 NW 1022,3 21 0 0,0
15.01.2021 10:00:00 -0,3 -1,6 -0,7 0,4 1,1 5,1 12 6 19 10 NW 1021,9 10 0 0,0
15.01.2021 09:00:00 0,0 -1,3 -0,5 0,4 1,1 5,1 8 4 22 12 NW 1021,5 7 0 0,0
15.01.2021 08:00:00 0,3 -1,4 -0,4 0,4 1,1 5,1 8 5 19 10 NNW 1021,1 31 0 0,0
15.01.2021 07:00:00 0,5 -1,0 -0,1 0,4 1,1 5,1 8 5 19 10 NNW 1020,5 31 0 0,0
15.01.2021 06:00:00 0,5 -0,1 0,0 0,4 1,1 5,1 8 4 16 9 NW 1020,1 12 0 0,0
15.01.2021 05:00:00 0,4 0,0 -0,1 0,4 1,1 5,1 6 3 14 7 WNW 1020,3 4,5 0 0,0
15.01.2021 04:00:00 0,4 0,2 0,0 0,4 1,1 5,1 6 3 24 13 N 1020,5 3,8 0 0,4
15.01.2021 03:00:00 0,9 0,0 0,2 0,3 1,1 5,1 9 5 19 10 NNW 1020,0 13 0 0,0
15.01.2021 02:00:00 1,0 0,0 0,2 0,4 1,1 5,1 9 5 18 10 NNW 1019,5 11 0 0,0
15.01.2021 01:00:00 1,0 0,3 0,4 0,4 1,1 5,1 9 5 13 7 NW 1019,5 16 0 0,0
15.01.2021 00:00:00 1,1 0,5 0,7 0,5 1,1 5,1 6 3 16 8 NNW 1019,4 14 0 0,0
14.01.2021 23:00:00 0,7 0,5 0,4 0,4 1,2 5,1 8 4 14 7 WNW 1019,3 9 0 0,0
14.01.2021 22:00:00 0,7 0,3 0,2 0,4 1,2 5,1 8 4 14 7 WNW 1019,3 9 0 0,0
14.01.2021 21:00:00 0,9 0,3 0,1 0,4 1,2 5,1 7 4 15 8 NNW 1019,0 10 0 0,0
14.01.2021 20:00:00 0,8 0,3 0,1 0,4 1,2 5,1 8 4 17 9 NW 1018,8 11 0 0,0
14.01.2021 19:00:00 0,9 0,4 -0,1 0,3 1,3 5,1 8 4 16 8 NNW 1018,4 12 0 0,0
14.01.2021 18:00:00 1,4 0,5 0,6 0,7 1,3 5,1 8 5 16 9 NNW 1017,9 14 0 0,0
14.01.2021 17:00:00 1,9 0,7 1,4 1,1 1,2 5,1 10 5 19 10 NNW 1017,4 19 0 0,0
14.01.2021 16:00:00 2,0 0,9 1,5 1,0 1,2 5,1 9 5 19 10 NW 1016,6 24 0 0,0
14.01.2021 15:00:00 2,2 0,7 1,6 0,9 1,2 5,1 11 6 26 14 NNW 1015,8 28 0 0,0

tt = temperature
td = dewpoint
tt 5cm = temperature 5cm
tt -5cm = temperature -5cm
tt -20cm = temperature -20cm
tt -100cm = temperature -100cm
ff = wind speed
fx = gusts
dd = wind direction
ppp = reduced air pressure
vv = visibility
sd = sunshine duration
rr = precipitation

Next stations